Time,TemperatureF,DewpointF,PressureIn,WindDirection,WindDirectionDegrees,WindSpeedMPH,WindSpeedGustMPH,Humidity,HourlyPrecipIn,Conditions,Clouds,dailyrainin,SoftwareType,DateUTC
2013-09-01 00:02:00,68.5,67.6,29.88,SW,218,0.0,0.0,97,0.00,NA,NA,0.80,WeatherLink_script,2013-09-01 04:02:00,
2013-09-01 00:03:00,68.5,67.6,29.88,SW,218,0.0,0.0,97,0.00,NA,NA,0.80,WeatherLink_script,2013-09-01 04:03:00,
2013-09-01 00:04:00,68.5,67.6,29.88,SW,218,0.0,0.0,97,0.00,NA,NA,0.80,WeatherLink_script,2013-09-01 04:04:00,
2013-09-01 00:05:00,68.5,67.6,29.88,SW,218,0.0,0.0,97,0.00,NA,NA,0.80,WeatherLink_script,2013-09-01 04:05:00,
2013-09-01 00:10:00,68.4,67.5,29.88,SW,218,0.5,1.0,97,0.00,NA,NA,0.80,WeatherLink_script,2013-09-01 04:10:00,
2013-09-01 00:14:00,68.3,67.4,29.88,SW,218,0.0,0.0,97,0.00,NA,NA,0.80,WeatherLink_script,2013-09-01 04:14:00,
2013-09-01 00:19:00,68.4,67.5,29.88,SW,218,0.0,0.0,97,0.00,NA,NA,0.80,WeatherLink_script,2013-09-01 04:19:00,
2013-09-01 00:24:00,68.4,67.5,29.88,SW,218,0.0,0.0,97,0.00,NA,NA,0.80,WeatherLink_script,2013-09-01 04:24:00,
2013-09-01 00:27:00,68.3,67.4,29.88,SW,218,0.0,0.0,97,0.00,NA,NA,0.80,WeatherLink_script,2013-09-01 04:27:00,
2013-09-01 00:32:00,68.3,67.5,29.88,SW,218,0.4,1.0,97,0.00,NA,NA,0.80,WeatherLink_script,2013-09-01 04:32:00,
2013-09-01 00:37:00,68.3,67.4,29.88,SW,218,0.3,1.0,97,0.00,NA,NA,0.80,WeatherLink_script,2013-09-01 04:37:00,
2013-09-01 00:42:00,68.3,67.4,29.88,SW,218,0.0,0.0,97,0.00,NA,NA,0.80,WeatherLink_script,2013-09-01 04:42:00,
2013-09-01 00:47:00,68.2,67.3,29.88,SW,218,0.0,0.0,97,0.00,NA,NA,0.80,WeatherLink_script,2013-09-01 04:47:00,
2013-09-01 00:52:00,68.2,67.3,29.88,SW,218,0.0,0.0,97,0.00,NA,NA,0.80,WeatherLink_script,2013-09-01 04:52:00,
2013-09-01 00:57:00,68.2,67.3,29.87,SW,218,0.0,0.0,97,0.00,NA,NA,0.80,WeatherLink_script,2013-09-01 04:57:00,
2013-09-01 01:02:00,68.2,67.3,29.87,SW,218,0.0,0.0,97,0.00,NA,NA,0.80,WeatherLink_script,2013-09-01 05:02:00,
2013-09-01 01:07:00,68.2,67.3,29.87,SW,218,0.0,0.0,97,0.00,NA,NA,0.80,WeatherLink_script,2013-09-01 05:07:00,
2013-09-01 01:12:00,68.2,67.3,29.87,SW,218,0.0,0.0,97,0.00,NA,NA,0.80,WeatherLink_script,2013-09-01 05:12:00,
2013-09-01 01:17:00,68.2,67.3,29.87,SW,218,0.0,0.0,97,0.00,NA,NA,0.80,WeatherLink_script,2013-09-01 05:17:00,
2013-09-01 01:22:00,68.2,67.3,29.88,SW,218,0.0,0.0,97,0.00,NA,NA,0.80,WeatherLink_script,2013-09-01 05:22:00,
2013-09-01 01:27:00,68.2,67.3,29.87,SW,218,1.0,2.0,97,0.00,NA,NA,0.80,WeatherLink_script,2013-09-01 05:27:00,
2013-09-01 01:32:00,68.2,67.3,29.88,SW,218,0.4,2.0,97,0.00,NA,NA,0.80,WeatherLink_script,2013-09-01 05:32:00,
2013-09-01 01:37:00,68.0,67.1,29.87,SW,217,0.1,1.0,97,0.00,NA,NA,0.80,WeatherLink_script,2013-09-01 05:37:00,
2013-09-01 01:39:00,68.0,67.1,29.88,SW,217,0.0,0.0,97,0.00,NA,NA,0.80,WeatherLink_script,2013-09-01 05:39:00,
2013-09-01 01:44:00,68.0,67.1,29.87,SW,217,0.0,0.0,97,0.00,NA,NA,0.80,WeatherLink_script,2013-09-01 05:44:00,
2013-09-01 01:49:00,67.9,67.0,29.87,SW,217,0.7,2.0,97,0.00,NA,NA,0.80,WeatherLink_script,2013-09-01 05:49:00,
2013-09-01 01:54:00,67.8,66.9,29.87,SW,217,1.2,3.0,97,0.00,NA,NA,0.80,WeatherLink_script,2013-09-01 05:54:00,
2013-09-01 01:59:00,67.8,66.9,29.86,SW,217,0.3,2.0,97,0.00,NA,NA,0.80,WeatherLink_script,2013-09-01 05:59:00,
2013-09-01 02:04:00,67.8,67.0,29.86,SW,217,0.0,0.0,97,0.00,NA,NA,0.80,WeatherLink_script,2013-09-01 06:04:00,
2013-09-01 02:09:00,67.7,66.8,29.86,SW,217,0.1,1.0,97,0.00,NA,NA,0.80,WeatherLink_script,2013-09-01 06:09:00,
2013-09-01 02:14:00,67.7,66.8,29.86,SW,217,0.0,0.0,97,0.00,NA,NA,0.80,WeatherLink_script,2013-09-01 06:14:00,
2013-09-01 02:19:00,67.7,66.8,29.87,SW,217,0.6,2.0,97,0.00,NA,NA,0.80,WeatherLink_script,2013-09-01 06:19:00,
2013-09-01 02:24:00,67.7,66.8,29.86,SW,217,0.0,0.0,97,0.00,NA,NA,0.80,WeatherLink_script,2013-09-01 06:24:00,
2013-09-01 02:29:00,67.7,66.8,29.86,SW,217,0.5,1.0,97,0.00,NA,NA,0.80,WeatherLink_script,2013-09-01 06:29:00,
2013-09-01 02:34:00,67.6,66.7,29.86,SW,217,1.1,2.0,97,0.00,NA,NA,0.80,WeatherLink_script,2013-09-01 06:34:00,
2013-09-01 02:39:00,67.7,66.8,29.86,SW,217,1.1,2.0,97,0.00,NA,NA,0.80,WeatherLink_script,2013-09-01 06:39:00,
2013-09-01 02:44:00,67.7,66.8,29.85,SW,217,0.7,2.0,97,0.00,NA,NA,0.80,WeatherLink_script,2013-09-01 06:44:00,
2013-09-01 02:49:00,67.5,66.6,29.85,SW,217,1.4,3.0,97,0.00,NA,NA,0.80,WeatherLink_script,2013-09-01 06:49:00,
2013-09-01 02:54:00,67.5,66.6,29.85,SW,217,1.8,3.0,97,0.00,NA,NA,0.80,WeatherLink_script,2013-09-01 06:54:00,
2013-09-01 02:59:00,67.5,66.6,29.84,SW,217,1.3,3.0,97,0.00,NA,NA,0.80,WeatherLink_script,2013-09-01 06:59:00,
2013-09-01 03:04:00,67.4,66.5,29.84,SW,217,0.6,2.0,97,0.00,NA,NA,0.80,WeatherLink_script,2013-09-01 07:04:00,
2013-09-01 03:09:00,67.4,66.5,29.84,SW,217,1.4,3.0,97,0.00,NA,NA,0.80,WeatherLink_script,2013-09-01 07:09:00,
2013-09-01 03:14:00,67.4,66.5,29.84,SW,217,0.4,1.0,97,0.00,NA,NA,0.80,WeatherLink_script,2013-09-01 07:14:00,
2013-09-01 03:19:00,67.1,66.2,29.84,SW,217,0.5,1.0,97,0.00,NA,NA,0.80,WeatherLink_script,2013-09-01 07:19:00,
2013-09-01 03:24:00,67.1,66.2,29.84,SW,217,0.7,2.0,97,0.00,NA,NA,0.80,WeatherLink_script,2013-09-01 07:24:00,
2013-09-01 03:29:00,67.1,66.2,29.84,SW,217,0.5,2.0,97,0.00,NA,NA,0.80,WeatherLink_script,2013-09-01 07:29:00,
2013-09-01 03:34:00,67.1,66.2,29.84,SW,218,0.1,1.0,97,0.00,NA,NA,0.80,WeatherLink_script,2013-09-01 07:34:00,
2013-09-01 03:39:00,67.1,66.2,29.84,SW,217,1.4,3.0,97,0.00,NA,NA,0.80,WeatherLink_script,2013-09-01 07:39:00,
2013-09-01 03:44:00,67.0,66.2,29.84,SW,217,0.8,2.0,97,0.00,NA,NA,0.80,WeatherLink_script,2013-09-01 07:44:00,
2013-09-01 03:49:00,67.0,66.1,29.84,SW,217,0.8,3.0,97,0.00,NA,NA,0.80,WeatherLink_script,2013-09-01 07:49:00,
2013-09-01 03:54:00,67.0,66.1,29.84,SW,217,1.9,3.0,97,0.00,NA,NA,0.80,WeatherLink_script,2013-09-01 07:54:00,
2013-09-01 03:59:00,67.0,66.1,29.84,SW,217,1.8,3.0,97,0.00,NA,NA,0.80,WeatherLink_script,2013-09-01 07:59:00,
2013-09-01 04:04:00,67.0,66.4,29.84,SW,217,1.6,3.0,98,0.00,NA,NA,0.80,WeatherLink_script,2013-09-01 08:04:00,
2013-09-01 04:09:00,66.8,66.2,29.84,SW,217,1.5,3.0,98,0.00,NA,NA,0.80,WeatherLink_script,2013-09-01 08:09:00,
2013-09-01 04:14:00,67.0,66.4,29.84,SW,217,0.7,1.0,98,0.00,NA,NA,0.80,WeatherLink_script,2013-09-01 08:14:00,
2013-09-01 04:19:00,67.0,66.4,29.84,SW,217,1.5,3.0,98,0.00,NA,NA,0.80,WeatherLink_script,2013-09-01 08:19:00,
2013-09-01 04:24:00,66.8,66.2,29.84,SW,217,1.4,3.0,98,0.00,NA,NA,0.80,WeatherLink_script,2013-09-01 08:24:00,
2013-09-01 04:29:00,66.8,66.2,29.83,SW,217,1.0,2.0,98,0.00,NA,NA,0.80,WeatherLink_script,2013-09-01 08:29:00,
2013-09-01 04:34:00,66.8,66.2,29.83,SW,217,1.4,2.0,98,0.00,NA,NA,0.80,WeatherLink_script,2013-09-01 08:34:00,
2013-09-01 04:39:00,66.8,66.2,29.83,SW,217,0.3,2.0,98,0.00,NA,NA,0.80,WeatherLink_script,2013-09-01 08:39:00,
2013-09-01 04:44:00,66.8,66.2,29.83,SW,217,1.3,3.0,98,0.00,NA,NA,0.80,WeatherLink_script,2013-09-01 08:44:00,
2013-09-01 04:49:00,66.7,65.8,29.83,SW,217,1.0,2.0,97,0.00,NA,NA,0.80,WeatherLink_script,2013-09-01 08:49:00,
2013-09-01 04:54:00,66.7,65.8,29.84,SW,217,0.7,2.0,97,0.00,NA,NA,0.80,WeatherLink_script,2013-09-01 08:54:00,
2013-09-01 04:59:00,66.5,65.7,29.84,SW,217,0.0,0.0,97,0.00,NA,NA,0.80,WeatherLink_script,2013-09-01 08:59:00,
2013-09-01 05:04:00,66.5,65.9,29.84,SW,217,0.0,0.0,98,0.00,NA,NA,0.80,WeatherLink_script,2013-09-01 09:04:00,
2013-09-01 05:09:00,66.5,65.9,29.84,SW,217,0.9,2.0,98,0.00,NA,NA,0.80,WeatherLink_script,2013-09-01 09:09:00,
2013-09-01 05:14:00,66.5,65.9,29.84,SW,217,0.9,1.0,98,0.00,NA,NA,0.80,WeatherLink_script,2013-09-01 09:14:00,
2013-09-01 05:19:00,66.4,65.8,29.84,SW,217,0.0,0.0,98,0.00,NA,NA,0.80,WeatherLink_script,2013-09-01 09:19:00,
2013-09-01 05:24:00,66.3,65.7,29.84,SW,217,0.0,0.0,98,0.00,NA,NA,0.80,WeatherLink_script,2013-09-01 09:24:00,
2013-09-01 05:29:00,66.3,65.7,29.84,SW,217,0.0,0.0,98,0.00,NA,NA,0.80,WeatherLink_script,2013-09-01 09:29:00,
2013-09-01 05:34:00,66.2,65.6,29.84,SW,217,0.0,0.0,98,0.00,NA,NA,0.80,WeatherLink_script,2013-09-01 09:34:00,
2013-09-01 05:39:00,66.2,65.6,29.85,SW,217,0.0,0.0,98,0.00,NA,NA,0.80,WeatherLink_script,2013-09-01 09:39:00,
2013-09-01 05:44:00,66.2,65.6,29.84,SW,217,0.4,1.0,98,0.00,NA,NA,0.80,WeatherLink_script,2013-09-01 09:44:00,
2013-09-01 05:49:00,66.1,65.5,29.85,SW,217,0.0,0.0,98,0.00,NA,NA,0.80,WeatherLink_script,2013-09-01 09:49:00,
2013-09-01 05:54:00,66.0,65.4,29.85,SW,217,0.0,0.0,98,0.00,NA,NA,0.80,WeatherLink_script,2013-09-01 09:54:00,
2013-09-01 05:59:00,66.0,65.4,29.85,SW,217,0.0,0.0,98,0.00,NA,NA,0.80,WeatherLink_script,2013-09-01 09:59:00,
2013-09-01 06:04:00,66.0,65.4,29.85,SW,217,0.0,0.0,98,0.00,NA,NA,0.80,WeatherLink_script,2013-09-01 10:04:00,
2013-09-01 06:09:00,66.1,65.5,29.85,SW,217,0.0,0.0,98,0.00,NA,NA,0.80,WeatherLink_script,2013-09-01 10:09:00,
2013-09-01 06:14:00,66.0,65.4,29.85,SW,217,0.2,1.0,98,0.00,NA,NA,0.80,WeatherLink_script,2013-09-01 10:14:00,
2013-09-01 06:19:00,66.0,65.4,29.85,SW,217,0.0,0.0,98,0.00,NA,NA,0.80,WeatherLink_script,2013-09-01 10:19:00,
2013-09-01 06:24:00,65.9,65.3,29.85,SW,217,0.0,0.0,98,0.01,NA,NA,0.81,WeatherLink_script,2013-09-01 10:24:00,
2013-09-01 06:29:00,65.9,65.3,29.85,SW,217,0.0,0.0,98,0.01,NA,NA,0.81,WeatherLink_script,2013-09-01 10:29:00,
2013-09-01 06:34:00,65.7,65.1,29.85,SW,217,0.0,0.0,98,0.01,NA,NA,0.81,WeatherLink_script,2013-09-01 10:34:00,
2013-09-01 06:39:00,65.7,65.1,29.85,SW,217,0.0,0.0,98,0.01,NA,NA,0.81,WeatherLink_script,2013-09-01 10:39:00,
2013-09-01 06:44:00,65.7,65.1,29.85,SW,217,0.0,0.0,98,0.01,NA,NA,0.81,WeatherLink_script,2013-09-01 10:44:00,
2013-09-01 06:49:00,65.5,64.9,29.85,SW,217,0.8,2.0,98,0.01,NA,NA,0.81,WeatherLink_script,2013-09-01 10:49:00,
2013-09-01 06:54:00,65.6,65.0,29.85,SW,217,0.2,1.0,98,0.01,NA,NA,0.81,WeatherLink_script,2013-09-01 10:54:00,
2013-09-01 06:59:00,65.5,64.9,29.85,SW,217,0.9,2.0,98,0.01,NA,NA,0.81,WeatherLink_script,2013-09-01 10:59:00,
2013-09-01 07:04:00,65.6,65.0,29.85,SW,217,0.9,2.0,98,0.01,NA,NA,0.81,WeatherLink_script,2013-09-01 11:04:00,
2013-09-01 07:09:00,65.6,65.0,29.85,SW,217,1.3,2.0,98,0.01,NA,NA,0.81,WeatherLink_script,2013-09-01 11:09:00,
2013-09-01 07:14:00,65.6,65.0,29.85,SW,217,0.0,0.0,98,0.01,NA,NA,0.81,WeatherLink_script,2013-09-01 11:14:00,
2013-09-01 07:19:00,65.5,64.9,29.85,SW,217,0.0,0.0,98,0.01,NA,NA,0.81,WeatherLink_script,2013-09-01 11:19:00,
2013-09-01 07:24:00,65.7,65.1,29.85,SW,217,0.0,0.0,98,0.00,NA,NA,0.81,WeatherLink_script,2013-09-01 11:24:00,
2013-09-01 07:29:00,65.9,65.3,29.85,SW,217,0.0,0.0,98,0.00,NA,NA,0.81,WeatherLink_script,2013-09-01 11:29:00,
2013-09-01 07:34:00,66.0,65.4,29.86,SW,217,0.0,0.0,98,0.00,NA,NA,0.81,WeatherLink_script,2013-09-01 11:34:00,
2013-09-01 07:39:00,66.2,65.6,29.86,SW,217,0.0,0.0,98,0.00,NA,NA,0.81,WeatherLink_script,2013-09-01 11:39:00,
2013-09-01 07:44:00,66.2,65.6,29.86,SW,217,0.0,0.0,98,0.00,NA,NA,0.81,WeatherLink_script,2013-09-01 11:44:00,
2013-09-01 07:49:00,66.2,65.6,29.86,SW,217,1.2,2.0,98,0.00,NA,NA,0.81,WeatherLink_script,2013-09-01 11:49:00,
2013-09-01 07:54:00,66.4,65.8,29.87,SW,217,0.4,2.0,98,0.00,NA,NA,0.81,WeatherLink_script,2013-09-01 11:54:00,
2013-09-01 07:59:00,66.2,65.6,29.87,SW,217,0.3,1.0,98,0.00,NA,NA,0.81,WeatherLink_script,2013-09-01 11:59:00,
2013-09-01 08:04:00,66.2,65.6,29.87,SW,217,0.3,2.0,98,0.00,NA,NA,0.81,WeatherLink_script,2013-09-01 12:04:00,
2013-09-01 08:09:00,66.2,65.6,29.87,SW,217,0.0,0.0,98,0.00,NA,NA,0.81,WeatherLink_script,2013-09-01 12:09:00,
2013-09-01 08:14:00,66.4,65.8,29.87,SW,217,0.0,0.0,98,0.00,NA,NA,0.81,WeatherLink_script,2013-09-01 12:14:00,
2013-09-01 08:19:00,66.5,65.9,29.87,SW,217,0.0,0.0,98,0.00,NA,NA,0.81,WeatherLink_script,2013-09-01 12:19:00,
2013-09-01 08:24:00,66.5,65.9,29.87,SW,217,0.1,1.0,98,0.00,NA,NA,0.81,WeatherLink_script,2013-09-01 12:24:00,
2013-09-01 08:29:00,66.8,66.2,29.87,SW,217,0.0,0.0,98,0.00,NA,NA,0.81,WeatherLink_script,2013-09-01 12:29:00,
2013-09-01 08:34:00,67.1,66.5,29.87,SW,217,0.0,0.0,98,0.00,NA,NA,0.81,WeatherLink_script,2013-09-01 12:34:00,
2013-09-01 08:39:00,67.4,66.8,29.88,SW,217,0.0,0.0,98,0.00,NA,NA,0.81,WeatherLink_script,2013-09-01 12:39:00,
2013-09-01 08:44:00,67.4,66.8,29.87,SW,217,0.0,0.0,98,0.00,NA,NA,0.81,WeatherLink_script,2013-09-01 12:44:00,
2013-09-01 08:49:00,67.5,66.9,29.88,SW,217,0.0,0.0,98,0.00,NA,NA,0.81,WeatherLink_script,2013-09-01 12:49:00,
2013-09-01 08:54:00,67.7,67.1,29.88,SW,217,0.4,1.0,98,0.00,NA,NA,0.81,WeatherLink_script,2013-09-01 12:54:00,
2013-09-01 08:59:00,67.9,67.3,29.88,SW,217,0.0,0.0,98,0.00,NA,NA,0.81,WeatherLink_script,2013-09-01 12:59:00,
2013-09-01 09:04:00,68.2,67.6,29.88,SW,217,0.2,1.0,98,0.00,NA,NA,0.81,WeatherLink_script,2013-09-01 13:04:00,
2013-09-01 09:09:00,68.5,67.9,29.88,SW,217,0.0,0.0,98,0.00,NA,NA,0.81,WeatherLink_script,2013-09-01 13:09:00,
2013-09-01 09:14:00,69.0,68.4,29.88,SW,217,0.1,1.0,98,0.00,NA,NA,0.81,WeatherLink_script,2013-09-01 13:14:00,
2013-09-01 09:19:00,69.3,68.7,29.88,SW,217,0.0,0.0,98,0.00,NA,NA,0.81,WeatherLink_script,2013-09-01 13:19:00,
2013-09-01 09:24:00,69.8,69.5,29.88,SW,217,0.1,1.0,99,0.00,NA,NA,0.81,WeatherLink_script,2013-09-01 13:24:00,
2013-09-01 09:29:00,70.3,69.7,29.88,SW,217,0.4,2.0,98,0.00,NA,NA,0.81,WeatherLink_script,2013-09-01 13:29:00,
2013-09-01 09:34:00,70.9,70.3,29.88,SW,217,0.0,0.0,98,0.00,NA,NA,0.81,WeatherLink_script,2013-09-01 13:34:00,
2013-09-01 09:39:00,71.6,71.0,29.88,SW,217,0.0,0.0,98,0.00,NA,NA,0.81,WeatherLink_script,2013-09-01 13:39:00,
2013-09-01 09:44:00,72.1,71.5,29.88,SW,217,0.4,2.0,98,0.00,NA,NA,0.81,WeatherLink_script,2013-09-01 13:44:00,
2013-09-01 09:49:00,72.7,72.1,29.89,SW,217,0.2,1.0,98,0.00,NA,NA,0.81,WeatherLink_script,2013-09-01 13:49:00,
2013-09-01 09:54:00,73.5,72.6,29.89,SW,217,0.0,0.0,97,0.00,NA,NA,0.81,WeatherLink_script,2013-09-01 13:54:00,
2013-09-01 09:59:00,73.9,72.4,29.89,SW,217,0.6,2.0,95,0.00,NA,NA,0.81,WeatherLink_script,2013-09-01 13:59:00,
2013-09-01 10:04:00,74.5,72.0,29.89,SW,217,1.4,3.0,92,0.00,NA,NA,0.81,WeatherLink_script,2013-09-01 14:04:00,
2013-09-01 10:09:00,75.2,72.4,29.89,SSW,208,0.0,0.0,91,0.00,NA,NA,0.81,WeatherLink_script,2013-09-01 14:09:00,
2013-09-01 10:14:00,75.8,72.6,29.89,SSW,208,0.0,0.0,90,0.00,NA,NA,0.81,WeatherLink_script,2013-09-01 14:14:00,
2013-09-01 10:19:00,76.4,72.6,29.89,SSW,207,0.1,1.0,88,0.00,NA,NA,0.81,WeatherLink_script,2013-09-01 14:19:00,
2013-09-01 10:24:00,77.1,72.6,29.89,SSW,207,0.3,2.0,86,0.00,NA,NA,0.81,WeatherLink_script,2013-09-01 14:24:00,
2013-09-01 10:29:00,77.6,72.4,29.89,SSW,208,0.5,2.0,84,0.00,NA,NA,0.81,WeatherLink_script,2013-09-01 14:29:00,
2013-09-01 10:34:00,78.1,72.5,29.88,SSW,208,0.2,1.0,83,0.00,NA,NA,0.81,WeatherLink_script,2013-09-01 14:34:00,
2013-09-01 10:39:00,78.6,73.0,29.88,SSW,207,1.1,2.0,83,0.00,NA,NA,0.81,WeatherLink_script,2013-09-01 14:39:00,
2013-09-01 10:44:00,79.1,73.1,29.88,SSW,207,0.0,0.0,82,0.00,NA,NA,0.81,WeatherLink_script,2013-09-01 14:44:00,
2013-09-01 10:49:00,79.6,73.2,29.88,SSW,207,0.3,1.0,81,0.00,NA,NA,0.81,WeatherLink_script,2013-09-01 14:49:00,
2013-09-01 10:54:00,80.0,72.9,29.88,SSW,207,1.1,2.0,79,0.00,NA,NA,0.81,WeatherLink_script,2013-09-01 14:54:00,
2013-09-01 10:59:00,80.4,74.0,29.88,SSW,208,0.1,1.0,81,0.00,NA,NA,0.81,WeatherLink_script,2013-09-01 14:59:00,
2013-09-01 11:04:00,80.9,74.1,29.88,SSW,207,0.1,1.0,80,0.00,NA,NA,0.81,WeatherLink_script,2013-09-01 15:04:00,
2013-09-01 11:09:00,81.1,72.8,29.88,SSW,208,0.2,1.0,76,0.00,NA,NA,0.81,WeatherLink_script,2013-09-01 15:09:00,
2013-09-01 11:14:00,81.1,72.0,29.88,SSW,201,0.6,2.0,74,0.00,NA,NA,0.81,WeatherLink_script,2013-09-01 15:14:00,
2013-09-01 11:19:00,81.3,72.6,29.88,SSW,202,0.0,0.0,75,0.00,NA,NA,0.81,WeatherLink_script,2013-09-01 15:19:00,
2013-09-01 11:24:00,81.3,72.2,29.88,SSW,201,0.7,2.0,74,0.00,NA,NA,0.81,WeatherLink_script,2013-09-01 15:24:00,
2013-09-01 11:29:00,81.5,73.6,29.88,SSW,202,0.1,1.0,77,0.00,NA,NA,0.81,WeatherLink_script,2013-09-01 15:29:00,
2013-09-01 11:34:00,81.7,72.5,29.88,SSW,202,0.0,0.0,74,0.00,NA,NA,0.81,WeatherLink_script,2013-09-01 15:34:00,
2013-09-01 11:39:00,82.0,73.3,29.88,SSW,202,0.0,0.0,75,0.00,NA,NA,0.81,WeatherLink_script,2013-09-01 15:39:00,
2013-09-01 11:44:00,82.6,72.6,29.88,SSW,202,0.0,0.0,72,0.00,NA,NA,0.81,WeatherLink_script,2013-09-01 15:44:00,
2013-09-01 11:49:00,83.0,74.2,29.88,SSW,202,0.2,1.0,75,0.00,NA,NA,0.81,WeatherLink_script,2013-09-01 15:49:00,
2013-09-01 11:54:00,83.3,74.6,29.88,SSW,201,0.0,0.0,75,0.00,NA,NA,0.81,WeatherLink_script,2013-09-01 15:54:00,
2013-09-01 11:59:00,83.6,74.0,29.88,SSW,201,0.4,1.0,73,0.00,NA,NA,0.81,WeatherLink_script,2013-09-01 15:59:00,
2013-09-01 12:04:00,84.0,74.4,29.88,SSW,201,0.1,1.0,73,0.00,NA,NA,0.81,WeatherLink_script,2013-09-01 16:04:00,
2013-09-01 12:09:00,84.3,73.0,29.88,SSW,201,0.6,3.0,69,0.00,NA,NA,0.81,WeatherLink_script,2013-09-01 16:09:00,
2013-09-01 12:14:00,84.3,72.1,29.88,ESE,105,0.0,0.0,67,0.00,NA,NA,0.81,WeatherLink_script,2013-09-01 16:14:00,
2013-09-01 12:19:00,84.6,72.4,29.87,ESE,105,1.0,2.0,67,0.00,NA,NA,0.81,WeatherLink_script,2013-09-01 16:19:00,
2013-09-01 12:24:00,84.8,72.6,29.88,NE,42,0.2,1.0,67,0.00,NA,NA,0.81,WeatherLink_script,2013-09-01 16:24:00,
2013-09-01 12:29:00,84.6,72.4,29.87,NE,44,0.4,2.0,67,0.00,NA,NA,0.81,WeatherLink_script,2013-09-01 16:29:00,
2013-09-01 12:34:00,84.6,72.4,29.87,NE,44,0.0,0.0,67,0.00,NA,NA,0.81,WeatherLink_script,2013-09-01 16:34:00,
2013-09-01 12:39:00,84.8,71.7,29.87,NE,45,0.5,2.0,65,0.00,NA,NA,0.81,WeatherLink_script,2013-09-01 16:39:00,
2013-09-01 12:44:00,85.0,71.5,29.87,ESE,120,1.1,3.0,64,0.00,NA,NA,0.81,WeatherLink_script,2013-09-01 16:44:00,
2013-09-01 12:49:00,85.3,71.7,29.86,ESE,120,1.0,3.0,64,0.00,NA,NA,0.81,WeatherLink_script,2013-09-01 16:49:00,
2013-09-01 12:54:00,85.4,71.3,29.87,ENE,71,2.1,3.0,63,0.00,NA,NA,0.81,WeatherLink_script,2013-09-01 16:54:00,
2013-09-01 12:59:00,85.5,72.3,29.87,ENE,68,2.0,3.0,65,0.00,NA,NA,0.81,WeatherLink_script,2013-09-01 16:59:00,
2013-09-01 13:04:00,85.6,72.0,29.87,ENE,62,1.3,2.0,64,0.00,NA,NA,0.81,WeatherLink_script,2013-09-01 17:04:00,
2013-09-01 13:09:00,85.8,74.0,29.86,ENE,63,0.1,1.0,68,0.00,NA,NA,0.81,WeatherLink_script,2013-09-01 17:09:00,
2013-09-01 13:14:00,86.0,73.3,29.86,ENE,63,1.8,4.0,66,0.00,NA,NA,0.81,WeatherLink_script,2013-09-01 17:14:00,
2013-09-01 13:19:00,86.0,73.3,29.86,ENE,61,0.0,0.0,66,0.00,NA,NA,0.81,WeatherLink_script,2013-09-01 17:19:00,
2013-09-01 13:24:00,85.9,72.8,29.86,ENE,61,0.7,2.0,65,0.00,NA,NA,0.81,WeatherLink_script,2013-09-01 17:24:00,
2013-09-01 13:29:00,86.0,71.4,29.86,ENE,60,1.4,3.0,62,0.00,NA,NA,0.81,WeatherLink_script,2013-09-01 17:29:00,
2013-09-01 13:34:00,85.9,70.9,29.86,NE,54,2.1,4.0,61,0.00,NA,NA,0.81,WeatherLink_script,2013-09-01 17:34:00,
2013-09-01 13:39:00,86.0,71.4,29.86,NE,50,1.5,2.0,62,0.00,NA,NA,0.81,WeatherLink_script,2013-09-01 17:39:00,
2013-09-01 13:44:00,86.3,72.2,29.86,NE,50,0.6,2.0,63,0.00,NA,NA,0.81,WeatherLink_script,2013-09-01 17:44:00,
2013-09-01 13:49:00,86.3,71.7,29.86,NE,50,0.0,0.0,62,0.00,NA,NA,0.81,WeatherLink_script,2013-09-01 17:49:00,
2013-09-01 13:54:00,86.4,71.3,29.86,NE,49,1.5,3.0,61,0.00,NA,NA,0.81,WeatherLink_script,2013-09-01 17:54:00,
2013-09-01 13:59:00,86.2,71.1,29.86,NE,50,1.5,3.0,61,0.00,NA,NA,0.81,WeatherLink_script,2013-09-01 17:59:00,
2013-09-01 14:04:00,86.2,72.1,29.86,ESE,107,1.5,3.0,63,0.00,NA,NA,0.81,WeatherLink_script,2013-09-01 18:04:00,
2013-09-01 14:09:00,86.4,72.7,29.86,ESE,107,0.1,1.0,64,0.00,NA,NA,0.81,WeatherLink_script,2013-09-01 18:09:00,
2013-09-01 14:14:00,86.8,73.1,29.86,ESE,107,0.3,2.0,64,0.00,NA,NA,0.81,WeatherLink_script,2013-09-01 18:14:00,
2013-09-01 14:19:00,87.0,73.3,29.85,ESE,107,0.2,1.0,64,0.00,NA,NA,0.81,WeatherLink_script,2013-09-01 18:19:00,
2013-09-01 14:24:00,86.6,73.4,29.86,ESE,107,0.0,0.0,65,0.00,NA,NA,0.81,WeatherLink_script,2013-09-01 18:24:00,
2013-09-01 14:29:00,86.3,73.5,29.85,ESE,107,0.0,0.0,66,0.00,NA,NA,0.81,WeatherLink_script,2013-09-01 18:29:00,
2013-09-01 14:34:00,85.8,71.7,29.85,ESE,107,0.1,1.0,63,0.00,NA,NA,0.81,WeatherLink_script,2013-09-01 18:34:00,
2013-09-01 14:39:00,85.5,72.4,29.85,ESE,107,0.0,0.0,65,0.00,NA,NA,0.81,WeatherLink_script,2013-09-01 18:39:00,
2013-09-01 14:44:00,85.4,72.3,29.85,ESE,107,0.0,0.0,65,0.00,NA,NA,0.81,WeatherLink_script,2013-09-01 18:44:00,
2013-09-01 14:49:00,85.2,71.6,29.85,ESE,107,0.2,1.0,64,0.00,NA,NA,0.81,WeatherLink_script,2013-09-01 18:49:00,
2013-09-01 14:54:00,85.2,72.9,29.84,ESE,107,0.2,1.0,67,0.00,NA,NA,0.81,WeatherLink_script,2013-09-01 18:54:00,
2013-09-01 14:59:00,85.2,73.0,29.84,ESE,107,0.5,2.0,67,0.00,NA,NA,0.81,WeatherLink_script,2013-09-01 18:59:00,
2013-09-01 15:04:00,85.3,73.1,29.84,ESE,107,0.0,0.0,67,0.00,NA,NA,0.81,WeatherLink_script,2013-09-01 19:04:00,
2013-09-01 15:09:00,85.3,74.4,29.84,ESE,107,0.0,0.0,70,0.00,NA,NA,0.81,WeatherLink_script,2013-09-01 19:09:00,
2013-09-01 15:14:00,85.2,72.5,29.84,ESE,107,0.0,0.0,66,0.00,NA,NA,0.81,WeatherLink_script,2013-09-01 19:14:00,
2013-09-01 15:19:00,85.2,74.3,29.83,ESE,107,0.0,0.0,70,0.00,NA,NA,0.81,WeatherLink_script,2013-09-01 19:19:00,
2013-09-01 15:24:00,84.9,73.6,29.83,ESE,107,0.0,0.0,69,0.00,NA,NA,0.81,WeatherLink_script,2013-09-01 19:24:00,
2013-09-01 15:29:00,84.7,74.3,29.84,ESE,107,0.0,0.0,71,0.00,NA,NA,0.81,WeatherLink_script,2013-09-01 19:29:00,
2013-09-01 15:34:00,84.6,74.1,29.84,ESE,107,0.0,0.0,71,0.00,NA,NA,0.81,WeatherLink_script,2013-09-01 19:34:00,
2013-09-01 15:39:00,83.9,73.5,29.84,ESE,107,0.1,1.0,71,0.00,NA,NA,0.81,WeatherLink_script,2013-09-01 19:39:00,
2013-09-01 15:44:00,83.6,74.0,29.84,ESE,107,0.0,0.0,73,0.00,NA,NA,0.81,WeatherLink_script,2013-09-01 19:44:00,
2013-09-01 15:49:00,83.0,73.5,29.83,ESE,106,0.2,1.0,73,0.00,NA,NA,0.81,WeatherLink_script,2013-09-01 19:49:00,
2013-09-01 15:54:00,82.8,73.6,29.84,ESE,107,0.0,0.0,74,0.00,NA,NA,0.81,WeatherLink_script,2013-09-01 19:54:00,
2013-09-01 15:59:00,82.2,73.1,29.83,ESE,106,0.0,0.0,74,0.00,NA,NA,0.81,WeatherLink_script,2013-09-01 19:59:00,
2013-09-01 16:04:00,82.1,73.7,29.83,ESE,106,0.1,1.0,76,0.00,NA,NA,0.81,WeatherLink_script,2013-09-01 20:04:00,
2013-09-01 16:09:00,81.3,74.2,29.82,NNE,32,0.6,3.0,79,0.00,NA,NA,0.81,WeatherLink_script,2013-09-01 20:09:00,
2013-09-01 16:14:00,80.8,74.8,29.83,West,277,3.0,5.0,82,0.00,NA,NA,0.81,WeatherLink_script,2013-09-01 20:14:00,
2013-09-01 16:19:00,79.8,74.2,29.83,WSW,244,2.5,4.0,83,0.00,NA,NA,0.81,WeatherLink_script,2013-09-01 20:19:00,
2013-09-01 16:24:00,79.1,72.7,29.83,WSW,255,1.0,2.0,81,0.00,NA,NA,0.81,WeatherLink_script,2013-09-01 20:24:00,
2013-09-01 16:29:00,78.3,72.3,29.83,NW,308,0.5,1.0,82,0.00,NA,NA,0.81,WeatherLink_script,2013-09-01 20:29:00,
2013-09-01 16:34:00,77.8,72.5,29.83,NW,308,0.7,3.0,84,0.00,NA,NA,0.81,WeatherLink_script,2013-09-01 20:34:00,
2013-09-01 16:39:00,77.1,72.2,29.83,NW,308,0.6,1.0,85,0.01,NA,NA,0.82,WeatherLink_script,2013-09-01 20:39:00,
2013-09-01 16:44:00,76.5,72.3,29.83,NW,308,1.0,2.0,87,0.02,NA,NA,0.83,WeatherLink_script,2013-09-01 20:44:00,
2013-09-01 16:49:00,76.2,72.8,29.83,NW,308,0.0,0.0,89,0.02,NA,NA,0.83,WeatherLink_script,2013-09-01 20:49:00,
2013-09-01 16:54:00,75.9,72.4,29.83,NW,308,0.1,1.0,89,0.03,NA,NA,0.81,WeatherLink_script,2013-09-01 20:54:00,
2013-09-01 16:59:00,75.6,72.1,29.83,NW,307,0.8,2.0,89,0.03,NA,NA,0.63,WeatherLink_script,2013-09-01 20:59:00,
2013-09-01 17:04:00,75.5,72.3,29.83,NW,307,2.2,3.0,90,0.03,NA,NA,0.37,WeatherLink_script,2013-09-01 21:04:00,
2013-09-01 17:09:00,75.3,72.1,29.83,NW,306,1.6,3.0,90,0.03,NA,NA,0.31,WeatherLink_script,2013-09-01 21:09:00,
2013-09-01 17:14:00,75.0,72.2,29.83,SW,236,1.9,5.0,91,0.03,NA,NA,0.29,WeatherLink_script,2013-09-01 21:14:00,
2013-09-01 17:19:00,74.9,72.5,29.83,SSW,207,1.4,3.0,92,0.03,NA,NA,0.29,WeatherLink_script,2013-09-01 21:19:00,
2013-09-01 17:24:00,74.8,72.3,29.82,SSE,153,0.9,2.0,92,0.03,NA,NA,0.29,WeatherLink_script,2013-09-01 21:24:00,
2013-09-01 17:29:00,74.6,72.1,29.82,SSE,152,0.9,2.0,92,0.03,NA,NA,0.29,WeatherLink_script,2013-09-01 21:29:00,
2013-09-01 17:34:00,74.4,71.9,29.82,SSE,153,0.0,0.0,92,0.03,NA,NA,0.29,WeatherLink_script,2013-09-01 21:34:00,
2013-09-01 17:39:00,74.3,71.8,29.82,SSE,153,0.4,1.0,92,0.02,NA,NA,0.29,WeatherLink_script,2013-09-01 21:39:00,
2013-09-01 17:44:00,74.1,71.6,29.82,SSE,152,1.4,3.0,92,0.01,NA,NA,0.29,WeatherLink_script,2013-09-01 21:44:00,
2013-09-01 17:49:00,74.1,71.6,29.81,SSE,153,0.4,2.0,92,0.01,NA,NA,0.29,WeatherLink_script,2013-09-01 21:49:00,
2013-09-01 17:54:00,74.0,71.5,29.81,SSE,152,1.2,2.0,92,0.00,NA,NA,0.29,WeatherLink_script,2013-09-01 21:54:00,
2013-09-01 17:59:00,73.9,71.4,29.81,SSE,153,0.3,1.0,92,0.00,NA,NA,0.29,WeatherLink_script,2013-09-01 21:59:00,
2013-09-01 18:04:00,73.8,71.4,29.81,SSE,153,0.0,0.0,92,0.00,NA,NA,0.29,WeatherLink_script,2013-09-01 22:04:00,
2013-09-01 18:09:00,73.9,71.4,29.82,SSE,153,0.0,0.0,92,0.00,NA,NA,0.29,WeatherLink_script,2013-09-01 22:09:00,
2013-09-01 18:14:00,73.8,71.6,29.81,SSE,153,0.0,0.0,93,0.00,NA,NA,0.29,WeatherLink_script,2013-09-01 22:14:00,
2013-09-01 18:19:00,73.8,71.7,29.82,SSE,153,0.0,0.0,93,0.00,NA,NA,0.29,WeatherLink_script,2013-09-01 22:19:00,
2013-09-01 18:24:00,73.8,71.7,29.82,SSE,153,0.0,0.0,93,0.00,NA,NA,0.29,WeatherLink_script,2013-09-01 22:24:00,
2013-09-01 18:29:00,73.8,71.6,29.82,SSE,153,0.0,0.0,93,0.00,NA,NA,0.29,WeatherLink_script,2013-09-01 22:29:00,
2013-09-01 18:34:00,73.7,71.6,29.81,SSE,153,0.0,0.0,93,0.00,NA,NA,0.29,WeatherLink_script,2013-09-01 22:34:00,
2013-09-01 18:39:00,73.8,71.6,29.81,SSE,153,0.0,0.0,93,0.00,NA,NA,0.29,WeatherLink_script,2013-09-01 22:39:00,
2013-09-01 18:44:00,73.7,71.8,29.81,SSE,153,0.0,0.0,94,0.00,NA,NA,0.29,WeatherLink_script,2013-09-01 22:44:00,
2013-09-01 18:49:00,73.8,72.0,29.81,SSE,153,0.0,0.0,94,0.00,NA,NA,0.29,WeatherLink_script,2013-09-01 22:49:00,
2013-09-01 18:54:00,73.8,72.0,29.82,SSE,153,0.9,2.0,94,0.00,NA,NA,0.29,WeatherLink_script,2013-09-01 22:54:00,
2013-09-01 18:59:00,73.7,71.9,29.82,SSW,205,0.9,3.0,94,0.00,NA,NA,0.29,WeatherLink_script,2013-09-01 22:59:00,
2013-09-01 19:04:00,73.6,71.4,29.82,SSW,206,0.4,1.0,93,0.00,NA,NA,0.29,WeatherLink_script,2013-09-01 23:04:00,
2013-09-01 19:09:00,73.4,71.6,29.82,SSW,206,0.3,1.0,94,0.00,NA,NA,0.28,WeatherLink_script,2013-09-01 23:09:00,
2013-09-01 19:14:00,73.2,71.4,29.81,SSW,206,0.3,1.0,94,0.00,NA,NA,0.26,WeatherLink_script,2013-09-01 23:14:00,
2013-09-01 19:19:00,73.2,71.4,29.81,SW,215,1.0,3.0,94,0.00,NA,NA,0.10,WeatherLink_script,2013-09-01 23:19:00,
2013-09-01 19:24:00,73.1,70.9,29.82,SW,215,1.7,3.0,93,0.00,NA,NA,0.06,WeatherLink_script,2013-09-01 23:24:00,
2013-09-01 19:29:00,72.9,71.1,29.82,SW,216,0.4,1.0,94,0.00,NA,NA,0.05,WeatherLink_script,2013-09-01 23:29:00,
2013-09-01 19:34:00,72.8,71.0,29.82,SW,216,0.4,1.0,94,0.00,NA,NA,0.05,WeatherLink_script,2013-09-01 23:34:00,
2013-09-01 19:39:00,72.5,70.4,29.81,SW,216,0.0,0.0,93,0.00,NA,NA,0.05,WeatherLink_script,2013-09-01 23:39:00,
2013-09-01 19:44:00,72.5,70.3,29.81,SW,215,0.0,0.0,93,0.00,NA,NA,0.04,WeatherLink_script,2013-09-01 23:44:00,
2013-09-01 19:49:00,72.4,69.9,29.81,SW,216,0.0,0.0,92,0.00,NA,NA,0.04,WeatherLink_script,2013-09-01 23:49:00,
2013-09-01 19:54:00,72.2,70.1,29.81,SW,216,0.0,0.0,93,0.00,NA,NA,0.04,WeatherLink_script,2013-09-01 23:54:00,
2013-09-01 19:59:00,72.2,69.7,29.81,SW,216,0.0,0.0,92,0.00,NA,NA,0.04,WeatherLink_script,2013-09-01 23:59:00,
2013-09-01 20:04:00,72.2,70.1,29.80,SW,216,0.0,0.0,93,0.00,NA,NA,0.04,WeatherLink_script,2013-09-02 00:04:00,
2013-09-01 20:09:00,72.3,70.5,29.81,SW,215,0.8,3.0,94,0.00,NA,NA,0.04,WeatherLink_script,2013-09-02 00:09:00,
2013-09-01 20:14:00,72.4,70.6,29.82,SW,215,0.2,1.0,94,0.00,NA,NA,0.04,WeatherLink_script,2013-09-02 00:14:00,
2013-09-01 20:19:00,72.4,70.9,29.82,SW,216,0.1,1.0,95,0.00,NA,NA,0.04,WeatherLink_script,2013-09-02 00:19:00,
2013-09-01 20:24:00,72.4,70.9,29.82,SW,215,0.3,1.0,95,0.00,NA,NA,0.04,WeatherLink_script,2013-09-02 00:24:00,
2013-09-01 20:29:00,72.4,70.9,29.83,SW,216,0.0,0.0,95,0.00,NA,NA,0.04,WeatherLink_script,2013-09-02 00:29:00,
2013-09-01 20:34:00,72.4,70.9,29.83,SW,216,0.0,0.0,95,0.00,NA,NA,0.04,WeatherLink_script,2013-09-02 00:34:00,
2013-09-01 20:39:00,72.4,70.9,29.83,SW,216,0.0,0.0,95,0.00,NA,NA,0.04,WeatherLink_script,2013-09-02 00:39:00,
2013-09-01 20:44:00,72.4,70.9,29.83,SW,216,0.0,0.0,95,0.00,NA,NA,0.04,WeatherLink_script,2013-09-02 00:44:00,
2013-09-01 20:49:00,72.4,70.9,29.82,SW,216,0.3,1.0,95,0.00,NA,NA,0.04,WeatherLink_script,2013-09-02 00:49:00,
2013-09-01 20:54:00,72.4,70.9,29.83,SW,216,0.2,1.0,95,0.00,NA,NA,0.04,WeatherLink_script,2013-09-02 00:54:00,
2013-09-01 20:59:00,72.4,70.9,29.83,SW,216,0.0,0.0,95,0.00,NA,NA,0.04,WeatherLink_script,2013-09-02 00:59:00,
2013-09-01 21:04:00,72.4,70.9,29.83,SW,216,0.0,0.0,95,0.00,NA,NA,0.04,WeatherLink_script,2013-09-02 01:04:00,
2013-09-01 21:09:00,72.4,70.9,29.83,SW,216,0.0,0.0,95,0.00,NA,NA,0.04,WeatherLink_script,2013-09-02 01:09:00,
2013-09-01 21:14:00,72.3,70.8,29.84,SW,216,0.0,0.0,95,0.00,NA,NA,0.04,WeatherLink_script,2013-09-02 01:14:00,
2013-09-01 21:19:00,72.3,70.8,29.84,SW,215,0.8,2.0,95,0.00,NA,NA,0.04,WeatherLink_script,2013-09-02 01:19:00,
2013-09-01 21:24:00,72.4,70.8,29.84,SW,216,0.0,0.0,95,0.00,NA,NA,0.04,WeatherLink_script,2013-09-02 01:24:00,
2013-09-01 21:29:00,72.2,70.7,29.84,SW,216,0.0,0.0,95,0.00,NA,NA,0.04,WeatherLink_script,2013-09-02 01:29:00,
2013-09-01 21:34:00,72.2,70.7,29.84,SW,216,0.0,0.0,95,0.00,NA,NA,0.04,WeatherLink_script,2013-09-02 01:34:00,
2013-09-01 21:39:00,72.2,70.7,29.84,SW,216,0.0,0.0,95,0.00,NA,NA,0.04,WeatherLink_script,2013-09-02 01:39:00,
2013-09-01 21:44:00,72.1,70.9,29.84,SW,215,0.0,0.0,96,0.00,NA,NA,0.04,WeatherLink_script,2013-09-02 01:44:00,
2013-09-01 21:49:00,72.0,70.8,29.84,SW,216,0.0,0.0,96,0.00,NA,NA,0.04,WeatherLink_script,2013-09-02 01:49:00,
2013-09-01 21:54:00,72.1,70.8,29.84,SW,216,0.0,0.0,96,0.00,NA,NA,0.04,WeatherLink_script,2013-09-02 01:54:00,
2013-09-01 21:59:00,72.1,70.8,29.85,SW,216,0.1,1.0,96,0.00,NA,NA,0.04,WeatherLink_script,2013-09-02 01:59:00,
2013-09-01 22:04:00,72.1,70.8,29.85,SW,216,0.0,0.0,96,0.00,NA,NA,0.04,WeatherLink_script,2013-09-02 02:04:00,
2013-09-01 22:09:00,72.1,70.9,29.85,SW,216,0.0,0.0,96,0.00,NA,NA,0.04,WeatherLink_script,2013-09-02 02:09:00,
2013-09-01 22:14:00,72.1,70.9,29.85,SW,215,0.8,1.0,96,0.00,NA,NA,0.04,WeatherLink_script,2013-09-02 02:14:00,
2013-09-01 22:19:00,72.1,70.8,29.85,SW,215,0.0,0.0,96,0.00,NA,NA,0.04,WeatherLink_script,2013-09-02 02:19:00,
2013-09-01 22:24:00,71.9,70.6,29.85,SW,216,0.0,0.0,96,0.00,NA,NA,0.04,WeatherLink_script,2013-09-02 02:24:00,
2013-09-01 22:29:00,71.7,70.5,29.85,SW,216,0.0,0.0,96,0.00,NA,NA,0.04,WeatherLink_script,2013-09-02 02:29:00,
2013-09-01 22:34:00,71.7,70.5,29.85,SW,215,0.0,0.0,96,0.00,NA,NA,0.04,WeatherLink_script,2013-09-02 02:34:00,
2013-09-01 22:39:00,71.5,69.9,29.85,SW,216,0.2,1.0,95,0.00,NA,NA,0.04,WeatherLink_script,2013-09-02 02:39:00,
2013-09-01 22:44:00,71.2,69.7,29.85,SW,215,1.9,3.0,95,0.00,NA,NA,0.04,WeatherLink_script,2013-09-02 02:44:00,
2013-09-01 22:49:00,70.9,69.4,29.85,SW,215,1.0,3.0,95,0.00,NA,NA,0.04,WeatherLink_script,2013-09-02 02:49:00,
2013-09-01 22:54:00,70.8,69.0,29.85,SW,215,0.5,2.0,94,0.00,NA,NA,0.04,WeatherLink_script,2013-09-02 02:54:00,
2013-09-01 22:59:00,70.7,69.2,29.86,SW,215,0.4,1.0,95,0.00,NA,NA,0.04,WeatherLink_script,2013-09-02 02:59:00,
2013-09-01 23:04:00,70.5,69.0,29.86,SW,218,0.4,2.0,95,0.00,NA,NA,0.04,WeatherLink_script,2013-09-02 03:04:00,
2013-09-01 23:09:00,70.5,69.0,29.86,SW,218,0.2,1.0,95,0.00,NA,NA,0.04,WeatherLink_script,2013-09-02 03:09:00,
2013-09-01 23:14:00,70.5,69.0,29.86,SW,218,0.6,2.0,95,0.00,NA,NA,0.04,WeatherLink_script,2013-09-02 03:14:00,
2013-09-01 23:19:00,70.5,69.0,29.86,SW,218,0.6,2.0,95,0.00,NA,NA,0.04,WeatherLink_script,2013-09-02 03:19:00,
2013-09-01 23:24:00,70.5,69.0,29.86,SW,218,0.9,2.0,95,0.00,NA,NA,0.04,WeatherLink_script,2013-09-02 03:24:00,
2013-09-01 23:29:00,70.3,68.5,29.85,SW,218,0.6,2.0,94,0.00,NA,NA,0.04,WeatherLink_script,2013-09-02 03:29:00,
2013-09-01 23:34:00,70.3,68.5,29.85,SW,217,1.0,2.0,94,0.00,NA,NA,0.04,WeatherLink_script,2013-09-02 03:34:00,
2013-09-01 23:39:00,70.4,68.6,29.85,SW,218,0.5,2.0,94,0.00,NA,NA,0.04,WeatherLink_script,2013-09-02 03:39:00,
2013-09-01 23:44:00,70.5,68.7,29.85,SW,218,0.1,1.0,94,0.00,NA,NA,0.04,WeatherLink_script,2013-09-02 03:44:00,
2013-09-01 23:49:00,70.5,68.7,29.84,SW,218,0.9,3.0,94,0.00,NA,NA,0.04,WeatherLink_script,2013-09-02 03:49:00,
2013-09-01 23:54:00,70.5,68.7,29.84,SW,218,0.3,1.0,94,0.00,NA,NA,0.04,WeatherLink_script,2013-09-02 03:54:00,
2013-09-01 23:59:00,70.5,68.7,29.84,SW,218,0.0,0.0,94,0.00,NA,NA,0.04,WeatherLink_script,2013-09-02 03:59:00,